FW4251 Weather Reports


time (UTC)temp
F
wind
direction
speed
knots
gust
knots
rain 1hr
in
rain 24hr
in
rain mn
in
humidity
%
barometer
mb
20211017154052 59 336 0.9 5.2 0.00 0.57 0.00 65 1008.1
20211017153606 59 337 1.7 5.2 0.00 0.57 0.00 70 1008.1
20211017153055 59 344 0.0 5.2 0.00 0.57 0.00 68 1008.2
20211017152547 58 334 1.7 5.2 0.00 0.57 0.00 68 1008.3
20211017152046 58 219 0.0 5.2 0.00 0.57 0.00 75 1008.2
20211017151807 57 218 1.7 5.2 0.00 0.57 0.00 73 1008.5
20211017151052 57 217 0.0 4.3 0.00 0.57 0.00 78 1008.6
20211017150600 57 213 1.7 4.3 0.00 0.57 0.00 76 1008.5
20211017150200 57 220 0.0 3.5 0.00 0.57 0.00 75 1008.5
20211017145545 57 259 1.7 3.5 0.00 0.57 0.00 77 1008.4
20211017145104 57 208 0.0 4.3 0.00 0.57 0.00 80 1008.5
20211017144616 58 209 0.9 7.0 0.00 0.57 0.00 79 1008.6
20211017144044 58 194 1.7 7.0 0.00 0.57 0.00 77 1008.6
20211017143543 58 178 0.9 5.2 0.00 0.57 0.00 82 1008.5
20211017143054 57 233 1.7 5.2 0.00 0.57 0.00 82 1008.4
20211017142549 56 188 0.9 4.3 0.00 0.57 0.00 85 1008.5
20211017142042 55 221 0.9 7.8 0.00 0.57 0.00 83 1008.6
20211017141620 56 220 4.3 7.8 0.00 0.57 0.00 79 1008.7
20211017141043 57 227 2.6 7.0 0.00 0.57 0.00 81 1008.7
20211017140540 56 217 3.5 7.8 0.00 0.57 0.00 84 1008.6
20211017140100 55 190 4.3 7.8 0.00 0.57 0.00 86 1008.7
20211017135538 54 192 4.3 7.0 0.00 0.57 0.00 86 1008.7
20211017135038 54 208 3.5 7.0 0.00 0.57 0.00 87 1008.7
20211017134621 54 182 2.6 7.0 0.00 0.57 0.00 89 1008.8
20211017134042 54 234 3.5 7.8 0.00 0.57 0.00 88 1008.8
20211017133536 53 223 2.6 5.2 0.00 0.57 0.00 90 1008.8
20211017133055 53 232 1.7 5.2 0.00 0.57 0.00 89 1008.8
20211017132536 53 194 2.6 5.2 0.00 0.57 0.00 89 1008.8
20211017132042 53 198 0.9 3.5 0.00 0.57 0.00 90 1008.7
20211017131614 52 201 0.9 4.3 0.00 0.57 0.00 91 1008.7
20211017131033 52 227 1.7 4.3 0.00 0.57 0.00 93 1008.7
20211017130536 51 205 0.9 4.3 0.00 0.57 0.00 94 1008.7
20211017130037 50 225 1.7 4.3 0.00 0.57 0.00 94 1008.7
20211017125533 50 222 1.7 6.1 0.00 0.57 0.00 94 1008.6
20211017125032 50 194 2.6 6.1 0.00 0.57 0.00 94 1008.5
20211017124533 50 209 1.7 7.0 0.00 0.57 0.00 94 1008.5
20211017124032 50 192 4.3 7.0 0.00 0.57 0.00 94 1008.6
20211017123557 50 198 4.3 6.1 0.00 0.57 0.00 94 1008.6
20211017123141 50 180 2.6 5.2 0.00 0.57 0.00 95 1008.5
20211017122530 49 175 1.7 3.5 0.00 0.57 0.00 95 1008.4
20211017122034 49 225 0.9 2.6 0.00 0.57 0.00 95 1008.3
20211017121600 49 225 0.9 2.6 0.00 0.57 0.00 94 1008.4
20211017121029 48 211 0.0 2.6 0.00 0.57 0.00 94 1008.3
20211017120527 48 213 0.0 2.6 0.00 0.57 0.00 94 1008.3
20211017120052 48 209 0.0 1.7 0.00 0.57 0.00 94 1008.2
20211017115528 48 209 0.0 1.7 0.00 0.57 0.00 93 1008.1
20211017115025 48 209 0.0 1.7 0.00 0.57 0.00 93 1008.0
20211017114549 48 209 0.0 1.7 0.00 0.57 0.00 93 1007.9
20211017114029 48 207 0.0 2.6 0.00 0.57 0.00 93 1008.0
20211017113524 48 209 0.0 2.6 0.00 0.57 0.00 93 1008.0
20211017113059 48 205 0.0 1.7 0.00 0.57 0.00 93 1008.1
20211017112533 48 205 0.0 2.6 0.00 0.57 0.00 93 1008.0
20211017112024 48 205 1.7 2.6 0.00 0.57 0.00 93 1008.0
20211017111530 48 201 0.9 2.6 0.00 0.57 0.00 93 1008.0
20211017111020 48 200 0.9 2.6 0.00 0.57 0.00 93 1007.8
20211017110523 49 200 0.0 1.7 0.00 0.57 0.00 93 1007.9
20211017110032 49 200 0.0 2.6 0.00 0.57 0.00 93 1007.9
20211017105516 49 200 0.9 2.6 0.00 0.57 0.00 93 1007.9
20211017105016 49 121 0.0 1.7 0.00 0.57 0.00 93 1007.8
20211017104519 49 121 0.9 1.7 0.00 0.57 0.00 93 1007.8
20211017104015 49 119 0.9 1.7 0.00 0.57 0.00 93 1007.7
20211017103516 49 118 0.9 1.7 0.00 0.57 0.00 93 1007.8
20211017103038 49 118 0.0 1.7 0.00 0.57 0.00 93 1007.8
20211017102519 50 118 0.0 1.7 0.00 0.57 0.00 93 1007.8
20211017102025 50 118 0.0 1.7 0.00 0.57 0.00 92 1007.7
20211017101523 50 118 0.0 0.9 0.00 0.57 0.00 92 1007.7
20211017101012 50 118 0.0 1.7 0.00 0.57 0.00 92 1007.6
20211017100517 50 118 0.0 1.7 0.00 0.57 0.00 92 1007.6
20211017100043 50 118 0.9 2.6 0.00 0.57 0.00 92 1007.4
20211017095510 50 206 0.0 1.7 0.00 0.57 0.00 93 1007.4
20211017095009 50 207 0.0 0.9 0.00 0.57 0.00 93 1007.3
20211017094525 50 207 0.0 0.9 0.00 0.57 0.00 93 1007.3
20211017094009 50 207 0.0 0.9 0.00 0.57 0.00 93 1007.3
20211017093508 50 207 0.0 1.7 0.00 0.57 0.00 93 1007.4
20211017093009 50 207 0.0 2.6 0.00 0.57 0.00 93 1007.3
20211017092507 50 207 0.0 2.6 0.00 0.57 0.00 93 1007.3
20211017092007 50 207 0.0 2.6 0.00 0.57 0.00 93 1007.2
20211017091507 50 207 0.0 2.6 0.00 0.57 0.00 93 1007.2
20211017091006 50 206 0.0 3.5 0.00 0.57 0.00 93 1007.3
20211017090506 50 206 0.9 3.5 0.00 0.57 0.00 93 1007.0
20211017090011 50 201 1.7 3.5 0.00 0.57 0.00 93 1007.0
20211017085509 50 225 1.7 5.2 0.00 0.57 0.00 93 1006.9
20211017085005 49 233 0.9 5.2 0.00 0.57 0.00 94 1007.0
20211017084527 49 221 1.7 4.3 0.00 0.57 0.00 94 1007.0
20211017084009 49 225 1.7 4.3 0.00 0.57 0.00 94 1006.8
20211017083514 49 217 0.9 3.5 0.00 0.57 0.00 94 1006.9
20211017083011 49 211 1.7 2.6 0.00 0.57 0.00 93 1006.7
20211017082506 49 211 0.0 2.6 0.00 0.57 0.00 93 1006.7
20211017082003 49 211 0.9 2.6 0.00 0.57 0.00 93 1006.6
20211017081503 49 211 0.0 1.7 0.00 0.57 0.00 93 1006.6
20211017081011 49 211 0.0 1.7 0.00 0.57 0.00 93 1006.7
20211017080504 49 211 0.0 1.7 0.00 0.57 0.00 93 1006.7
20211017080003 49 211 0.0 3.5 0.00 0.73 0.00 93 1006.6
20211017075502 49 211 2.6 3.5 0.00 0.73 0.00 93 1006.6
20211017075109 49 236 0.9 2.6 0.00 0.73 0.00 93 1006.6
20211017074656 49 236 0.9 2.6 0.00 0.73 0.00 93 1006.5
20211017074115 49 236 0.9 2.6 0.00 0.73 0.00 93 1006.6
20211017073600 49 238 0.9 2.6 0.00 0.73 0.00 93 1006.6
20211017073138 50 238 0.9 2.6 0.00 0.73 0.00 93 1006.7
20211017072558 50 238 1.7 2.6 0.00 0.73 0.00 93 1006.7
20211017072101 50 252 0.0 2.6 0.00 0.73 0.00 93 1006.8
20211017071610 50 252 0.0 2.6 0.00 0.73 0.00 93 1006.6
20211017071110 50 253 0.0 1.7 0.00 0.73 0.00 93 1006.6
20211017070556 50 258 0.0 2.6 0.00 0.73 0.00 93 1006.6
20211017070130 50 258 0.9 3.5 0.00 0.73 0.00 93 1006.6
20211017065555 50 225 1.7 3.5 0.00 0.73 0.00 93 1006.5
20211017065102 50 229 1.7 4.3 0.00 0.73 0.00 93 1006.7
20211017064628 50 236 0.9 4.3 0.00 0.73 0.00 93 1006.7
20211017064059 50 205 0.9 1.7 0.00 0.73 0.00 93 1006.6
20211017063552 50 200 0.9 2.6 0.00 0.73 0.00 93 1006.6
20211017063124 50 200 0.0 2.6 0.00 0.73 0.00 93 1006.6
20211017062551 50 200 0.9 3.5 0.00 0.73 0.00 93 1006.6
20211017062116 50 194 0.9 3.5 0.00 0.73 0.00 92 1006.6
20211017061642 51 219 0.9 4.3 0.00 0.73 0.00 92 1006.7
20211017061048 51 196 2.6 4.3 0.00 0.73 0.00 92 1006.7
20211017060609 51 196 0.9 3.5 0.00 0.73 0.00 92 1006.7
20211017060054 51 218 1.7 3.5 0.00 0.73 0.00 92 1006.8
20211017055604 52 304 0.9 2.6 0.00 0.73 0.00 92 1006.8
20211017055055 52 319 0.9 2.6 0.00 0.73 0.00 93 1006.8
20211017054651 52 319 0.9 1.7 0.00 0.73 0.00 92 1006.6
20211017054041 53 319 0.9 1.7 0.00 0.73 0.00 93 1006.7
20211017053550 53 319 0.0 2.6 0.00 0.73 0.00 93 1006.7
20211017053132 53 319 0.0 2.6 0.00 0.73 0.00 93 1006.7
20211017052540 53 319 0.0 1.7 0.00 0.73 0.00 93 1006.8
20211017052039 54 319 0.0 1.7 0.00 0.73 0.00 93 1006.9
20211017051610 54 320 0.0 2.6 0.00 0.73 0.00 93 1006.9
20211017051105 54 320 0.0 2.6 0.00 0.73 0.00 93 1006.9
20211017050536 54 324 0.0 0.9 0.00 0.73 0.00 94 1007.0
20211017050115 54 324 0.0 3.5 0.00 0.73 0.00 94 1007.0
20211017045553 54 324 0.0 5.2 0.00 0.73 0.00 94 1006.9
20211017045039 55 325 1.7 7.0 0.00 0.73 0.00 94 1006.9
20211017044608 55 293 0.9 7.0 0.00 0.73 0.00 94 1007.0
20211017044032 55 233 0.0 2.6 0.00 0.73 0.00 94 1007.1
20211017043538 55 326 0.0 2.6 0.00 0.73 0.00 94 1007.1
20211017043038 55 326 0.0 2.6 0.00 0.73 0.00 94 1007.1
20211017042539 56 334 0.0 1.7 0.00 0.73 0.00 94 1007.0
20211017042036 56 334 0.0 1.7 0.00 0.73 0.00 94 1007.1
20211017041551 56 334 0.0 0.9 0.00 0.73 0.00 95 1006.9
20211017041032 56 334 0.0 0.9 0.00 0.73 0.00 94 1006.9
20211017040526 56 334 0.0 1.7 0.00 0.73 0.00 94 1006.9
20211017040029 56 334 0.9 2.6 0.00 0.73 0.00 95 1006.6
20211017035533 57 331 0.9 2.6 0.00 0.73 0.73 95 1006.4
20211017035023 57 169 0.0 1.7 0.00 0.73 0.73 95 1006.7
20211017034524 57 168 0.0 4.3 0.00 0.73 0.73 95 1006.5
20211017034022 57 166 1.7 4.3 0.00 0.73 0.73 95 1007.0
20211017033522 57 158 0.0 1.7 0.01 0.73 0.73 94 1006.9
20211017033047 57 158 0.9 2.6 0.01 0.73 0.73 94 1006.6
20211017032528 57 158 0.9 2.6 0.01 0.73 0.73 94 1007.6
20211017032041 57 153 0.0 2.6 0.01 0.73 0.73 94 1007.5
20211017031534 57 153 0.9 2.6 0.01 0.73 0.73 94 1007.4
20211017031020 57 153 0.9 2.6 0.01 0.73 0.73 94 1007.4
20211017030528 57 128 0.0 1.7 0.01 0.73 0.73 94 1007.4
20211017030032 57 128 0.0 1.7 0.03 0.73 0.73 94 1007.8
20211017025519 57 128 0.0 1.7 0.03 0.73 0.73 94 1007.6
20211017025019 57 128 0.0 0.9 0.05 0.73 0.73 94 1007.1
20211017024526 57 128 0.0 0.9 0.07 0.73 0.73 94 1007.4
20211017024018 57 128 0.0 0.9 0.08 0.73 0.73 94 1007.2
20211017023517 57 128 0.0 0.9 0.08 0.72 0.72 94 1007.3
20211017023031 57 128 0.0 1.7 0.09 0.72 0.72 94 1007.3
20211017022517 58 128 0.0 1.7 0.10 0.72 0.72 94 1007.2
20211017022016 58 128 0.0 1.7 0.11 0.72 0.72 94 1007.0
20211017021535 58 128 0.0 2.6 0.12 0.72 0.72 94 1007.0
20211017021015 58 136 0.0 2.6 0.12 0.72 0.72 94 1007.1
20211017020526 58 188 0.0 1.7 0.13 0.72 0.72 94 1007.3
20211017020029 58 188 0.0 3.5 0.11 0.70 0.70 94 1007.7
20211017015514 58 188 0.9 3.5 0.11 0.70 0.70 94 1008.3
20211017015019 58 163 0.9 1.7 0.10 0.68 0.68 94 1008.0
20211017014520 58 107 0.0 1.7 0.08 0.66 0.66 94 1007.5
20211017014014 58 107 0.0 0.9 0.07 0.65 0.65 93 1007.3
20211017013513 58 107 0.0 3.5 0.07 0.64 0.64 93 1007.2
20211017013013 58 108 0.9 5.2 0.07 0.63 0.63 93 1006.6
20211017012512 58 112 1.7 5.2 0.06 0.62 0.62 93 1006.6
20211017012012 58 113 0.9 2.6 0.05 0.61 0.61 93 1006.6
20211017011534 58 315 0.0 1.7 0.04 0.60 0.60 93 1006.7
20211017011011 58 315 0.0 1.7 0.05 0.60 0.60 93 1006.9
20211017010511 58 315 0.0 0.9 0.04 0.59 0.59 93 1006.2
20211017010030 58 315 0.0 3.5 0.04 0.59 0.59 93 1005.9
20211017005510 58 315 0.0 4.3 0.05 0.59 0.59 93 1005.6
20211017005008 58 342 1.7 4.3 0.04 0.57 0.57 93 1005.2
20211017004508 59 298 1.7 2.6 0.05 0.57 0.57 93 1005.6
20211017004023 59 282 0.0 1.7 0.05 0.57 0.57 93 1005.7
20211017003507 59 282 0.0 1.7 0.05 0.56 0.56 94 1005.6
20211017003033 59 282 0.0 1.7 0.06 0.56 0.56 94 1005.6
20211017002506 59 282 0.0 2.6 0.08 0.56 0.56 94 1005.2
20211017002007 59 278 0.0 3.5 0.08 0.56 0.56 94 1005.7
20211017001509 59 278 1.7 7.8 0.08 0.56 0.56 94 1005.4
20211017001010 59 351 3.5 7.8 0.08 0.55 0.55 93 1005.0
20211017000503 60 355 2.6 7.0 0.09 0.55 0.55 94 1005.5
20211017000004 60 323 1.7 7.0 0.09 0.55 0.55 94 1005.5
20211016235501 60 292 2.6 6.1 0.08 0.54 0.54 94 1005.2
20211016235003 60 319 1.7 6.1 0.08 0.54 0.54 94 1005.4
20211016234504 60 301 1.7 5.2 0.08 0.53 0.53 95 1005.4
20211016234003 60 298 1.7 4.3 0.08 0.53 0.53 95 1004.9
20211016233503 61 242 0.9 8.7 0.09 0.52 0.52 95 1004.7
20211016233244 61 138 3.5 8.7 0.10 0.51 0.51 95 1004.9
20211016232600 61 240 1.7 6.1 0.09 0.49 0.49 95 1005.1
20211016232101 61 195 2.6 4.3 0.09 0.48 0.48 94 1004.9
20211016231625 61 203 0.9 2.6 0.09 0.48 0.48 94 1004.6
20211016231059 61 203 0.9 2.6 0.09 0.47 0.47 94 1004.6
20211016230559 61 207 0.9 2.6 0.09 0.47 0.47 94 1004.3
20211016230118 61 209 0.0 3.5 0.08 0.46 0.46 94 1004.4
20211016225559 61 208 0.9 4.3 0.09 0.46 0.46 94 1004.4
20211016225058 61 184 1.7 5.2 0.09 0.46 0.46 94 1004.1
20211016224609 61 221 1.7 5.2 0.08 0.45 0.45 94 1003.9
20211016224102 61 204 0.9 5.2 0.08 0.45 0.45 94 1004.1
20211016223614 61 171 2.6 5.2 0.07 0.44 0.44 93 1004.5
20211016223232 61 201 1.7 5.2 0.05 0.41 0.41 93 1004.2
20211016222559 61 214 1.7 5.2 0.04 0.40 0.40 93 1003.6
20211016222104 61 209 0.9 5.2 0.03 0.39 0.39 93 1003.3
20211016221619 62 213 1.7 5.2 0.04 0.39 0.39 93 1003.1
20211016221140 62 209 0.9 4.3 0.03 0.38 0.38 93 1003.2
20211016220603 62 206 0.9 5.2 0.04 0.38 0.38 93 1003.0
20211016220136 62 192 1.7 5.2 0.05 0.38 0.38 93 1003.0
20211016215553 62 180 1.7 4.3 0.04 0.37 0.37 93 1002.8
20211016215052 62 174 2.6 6.1 0.05 0.37 0.37 93 1003.0
20211016214639 62 221 1.7 6.1 0.11 0.37 0.37 93 1002.9
20211016214051 63 210 1.7 7.0 0.18 0.37 0.37 93 1002.7
20211016213550 63 210 2.6 7.8 0.20 0.37 0.37 93 1002.7
20211016213138 63 171 3.5 7.8 0.20 0.36 0.36 93 1003.0
20211016212601 64 192 3.5 6.1 0.21 0.36 0.36 93 1003.0
20211016212049 64 183 2.6 7.0 0.21 0.36 0.36 93 1002.7
20211016211555 64 213 2.6 6.1 0.20 0.35 0.35 93 1002.5
20211016211047 64 224 1.7 6.1 0.20 0.35 0.35 92 1002.2
20211016210555 64 261 0.9 3.5 0.19 0.34 0.34 92 1002.2
20211016210137 64 297 0.9 3.5 0.18 0.33 0.33 91 1001.9
20211016205549 64 298 0.9 5.2 0.18 0.33 0.33 90 1001.9
20211016205103 65 215 0.9 8.7 0.17 0.32 0.32 88 1001.9
20211016204608 66 342 2.6 13.0 0.11 0.26 0.26 86 1001.9
20211016204051 67 288 6.1 15.6 0.03 0.18 0.18 84 1002.0
20211016203551 69 247 7.0 18.2 0.02 0.17 0.17 80 1001.9
20211016203115 72 331 4.3 15.6 0.01 0.16 0.16 76 1001.7
20211016202546 74 167 7.0 15.6 0.00 0.15 0.15 74 1001.7
20211016202052 75 252 3.5 8.7 0.00 0.15 0.15 75 1000.5
20211016201611 75 140 2.6 8.7 0.00 0.15 0.15 73 1000.1
20211016201053 76 149 1.7 9.6 0.00 0.15 0.15 74 1000.2
20211016200545 76 166 2.6 15.6 0.00 0.15 0.15 72 1000.3
20211016200123 78 198 3.5 8.7 0.00 0.15 0.15 71 1000.2
20211016195542 77 179 4.3 8.7 0.00 0.15 0.15 71 1000.7
20211016195040 76 126 3.5 10.4 0.00 0.15 0.15 72 1000.9
20211016194600 76 217 2.6 10.4 0.00 0.15 0.15 73 1001.2
20211016194041 76 202 3.5 11.3 0.00 0.15 0.15 73 1001.3
20211016193541 76 223 4.3 11.3 0.00 0.15 0.15 72 1001.3
20211016193046 76 197 6.1 13.0 0.00 0.15 0.15 73 1001.5
20211016192536 76 222 4.3 14.8 0.00 0.15 0.15 72 1001.6
20211016192037 75 207 6.1 14.8 0.00 0.15 0.15 73 1001.7
20211016191615 75 165 3.5 10.4 0.00 0.15 0.15 74 1001.7
20211016191039 74 146 4.3 8.7 0.00 0.15 0.15 76 1001.6
20211016190536 74 121 4.3 8.7 0.00 0.15 0.15 75 1001.7
20211016190115 74 155 2.6 13.0 0.00 0.15 0.15 74 1001.8
20211016185533 75 210 4.3 13.0 0.00 0.15 0.15 73 1001.9
20211016185053 75 177 3.5 11.3 0.00 0.15 0.15 72 1001.8
20211016184607 76 158 2.6 7.8 0.00 0.15 0.15 72 1001.9
20211016184029 76 180 2.6 10.4 0.00 0.15 0.15 73 1001.9
20211016183532 75 186 3.5 10.4 0.00 0.15 0.15 75 1002.0
20211016183028 74 228 1.7 8.7 0.00 0.15 0.15 76 1002.3
20211016182536 74 208 4.3 8.7 0.00 0.15 0.15 75 1002.3
20211016182024 73 161 3.5 10.4 0.00 0.15 0.15 78 1002.4
20211016181621 73 139 4.3 13.0 0.00 0.15 0.15 76 1002.4
20211016181026 73 186 2.6 12.2 0.00 0.15 0.15 77 1002.6
20211016180532 73 163 4.3 9.6 0.00 0.15 0.15 76 1002.6
20211016180045 73 188 3.5 13.9 0.00 0.15 0.15 75 1002.7
20211016175526 73 194 6.1 18.2 0.00 0.15 0.15 75 1002.7
20211016175028 74 182 5.2 18.2 0.00 0.15 0.15 75 1002.8
20211016174539 74 175 7.0 17.4 0.00 0.15 0.15 76 1002.8
20211016174018 73 172 3.5 9.6 0.00 0.15 0.15 77 1003.1
20211016173519 72 177 3.5 8.7 0.00 0.15 0.15 79 1003.3
20211016173051 71 187 3.5 8.7 0.00 0.15 0.15 79 1003.3
20211016172520 71 165 3.5 7.8 0.00 0.15 0.15 79 1003.6
20211016172015 71 134 3.5 8.7 0.00 0.15 0.15 79 1003.5
20211016171544 72 173 2.6 8.7 0.00 0.15 0.15 79 1003.6
20211016171017 72 173 3.5 7.0 0.00 0.15 0.15 78 1003.9
20211016170512 72 150 1.7 5.2 0.00 0.15 0.15 79 1003.9
20211016170012 72 196 2.6 7.0 0.00 0.15 0.15 79 1004.0
20211016165511 71 162 2.6 7.0 0.00 0.15 0.15 79 1004.0
20211016165010 71 184 4.3 7.8 0.00 0.15 0.15 79 1004.2
20211016164526 71 210 1.7 5.2 0.00 0.15 0.15 81 1004.3
20211016164011 71 163 2.6 6.1 0.00 0.15 0.15 80 1004.4
20211016163508 71 191 2.6 7.0 0.00 0.15 0.15 80 1004.4
20211016163008 71 186 2.6 7.0 0.00 0.15 0.15 80 1004.6
20211016162507 71 229 3.5 7.0 0.00 0.15 0.15 78 1004.6
20211016162006 71 156 3.5 8.7 0.00 0.15 0.15 80 1004.6
20211016161506 70 163 4.3 8.7 0.00 0.15 0.15 80 1004.7
20211016161005 70 224 2.6 10.4 0.00 0.15 0.15 81 1004.7
20211016160503 69 194 3.5 8.7 0.00 0.15 0.15 81 1004.9
20211016160008 70 166 3.5 12.2 0.00 0.15 0.15 80 1005.0
20211016155504 70 221 6.1 14.8 0.00 0.15 0.15 78 1005.2
20211016155006 70 199 5.2 14.8 0.00 0.15 0.15 78 1005.1